E1763 Weather Reports


Display with metric or nautical units.
time (UTC)temp
F
wind
direction
speed
MPH
gust
MPH
rain 1hr
in
rain 24hr
in
rain mn
in
humidity
%
barometer
mb
20260905041505 58 308 0.0 0.0 0.00 0.01 0.00 90 1009.9
20260905040004 58 340 0.0 0.0 0.00 0.01 0.00 90 1009.7
20260905034502 58 240 0.0 0.0 0.00 0.02 0.00 89 1009.7
20260905033006 59 271 0.0 0.0 0.00 0.02 0.00 88 1009.5
20260905031503 59 300 0.0 1.0 0.00 0.02 0.00 87 1009.5
20260905030101 59 302 0.0 0.0 0.00 0.02 0.00 86 1009.4
20260905024600 60 232 0.0 0.0 0.00 0.03 0.00 84 1009.5
20260905023127 61 298 0.0 0.0 0.00 0.03 0.00 83 1009.4
20260905021601 62 313 0.0 1.0 0.00 0.03 0.00 81 1009.4
20260905020104 62 281 0.0 0.0 0.00 0.03 0.00 79 1009.4
20260905014602 63 30 0.0 0.0 0.00 0.03 0.00 76 1009.5
20260905013057 64 57 0.0 0.0 0.00 0.03 0.00 74 1009.5
20260905011603 65 330 0.0 5.0 0.00 0.03 0.00 72 1009.3
20260905010057 65 350 0.0 0.0 0.00 0.03 0.00 70 1009.3
20260905004555 66 293 0.0 6.0 0.00 0.03 0.00 68 1009.2
20260905003056 67 341 0.0 0.0 0.00 0.03 0.00 67 1009.0
20260905001603 68 90 0.0 0.0 0.00 0.03 0.00 67 1009.0
20260905000112 67 260 0.0 0.0 0.00 0.03 0.00 68 1009.0
20260904234554 68 314 0.0 0.0 0.00 0.03 0.00 67 1008.9
20260904233053 68 214 0.0 0.0 0.00 0.03 0.00 66 1008.9
20260904231558 68 210 0.0 5.0 0.00 0.03 0.00 67 1009.0
20260904230053 69 252 0.0 0.0 0.00 0.03 0.00 62 1009.0
20260904224556 69 61 0.0 0.0 0.00 0.03 0.00 63 1008.9
20260904223055 69 39 0.0 0.0 0.00 0.03 0.00 64 1009.0
20260904221551 71 14 0.0 0.0 0.00 0.03 0.00 60 1009.1
20260904220110 70 246 0.0 0.0 0.00 0.03 0.00 60 1009.2
20260904214550 69 60 0.0 0.0 0.00 0.03 0.00 60 1009.2
20260904213050 71 304 0.0 0.0 0.00 0.03 0.00 55 1009.1
20260904211555 71 246 0.0 0.0 0.00 0.03 0.00 57 1009.2
20260904210057 70 79 1.0 4.0 0.00 0.03 0.00 63 1009.2
20260904204547 67 294 0.0 0.0 0.00 0.03 0.00 67 1009.3
20260904203044 67 331 0.0 0.0 0.00 0.03 0.00 68 1009.3
20260904201539 66 355 0.0 0.0 0.00 0.03 0.00 73 1009.3
20260904200040 68 303 0.0 0.0 0.00 0.03 0.00 69 1009.4
20260904194636 67 187 0.0 0.0 0.00 0.03 0.00 70 1009.5
20260904193039 67 344 0.0 7.0 0.00 0.03 0.00 73 1009.7
20260904191539 65 321 0.0 6.0 0.00 0.03 0.00 81 1009.8
20260904190029 63 331 0.0 0.0 0.00 0.03 0.00 87 1009.7
20260904184524 63 26 0.0 0.0 0.00 0.03 0.00 92 1009.6
20260904183021 61 108 0.0 0.0 0.00 0.03 0.00 96 1009.6
20260904181518 60 21 0.0 0.0 0.00 0.03 0.00 97 1009.6
20260904180016 59 163 0.0 0.0 0.00 0.03 0.00 97 1009.4
20260904174529 58 292 0.0 0.0 0.00 0.06 0.00 97 1009.4
20260904173013 58 195 0.0 0.0 0.00 0.06 0.00 97 1009.4
20260904171511 58 162 0.0 1.0 0.00 0.06 0.00 97 1009.3
20260904170010 56 264 0.0 0.0 0.00 0.06 0.00 97 1009.3
20260904164508 55 264 0.0 1.0 0.00 0.06 0.00 97 1009.2
20260904163006 55 71 0.0 0.0 0.00 0.06 0.00 97 1009.1
20260904161505 54 360 0.0 0.0 0.00 0.06 0.00 97 1009.0
20260904160005 54 101 0.0 0.0 0.00 0.06 0.00 97 1009.0
20260904154504 53 22 0.0 0.0 0.00 0.07 0.00 97 1009.0
20260904153004 53 47 0.0 0.0 0.00 0.07 0.00 97 1009.1
20260904151601 53 77 0.0 0.0 0.00 0.07 0.00 97 1008.8
20260904151501 53 77 0.0 0.0 0.00 0.07 0.00 97 1008.8
20260904150100 52 14 0.0 0.0 0.00 0.07 0.00 97 1008.6
20260904144557 52 9 0.0 0.0 0.00 0.07 0.00 97 1008.5
20260904143055 52 64 0.0 0.0 0.00 0.07 0.00 97 1008.2
20260904141556 52 62 0.0 0.0 0.00 0.07 0.00 97 1008.2
20260904140053 52 74 0.0 0.0 0.00 0.07 0.00 97 1008.1
20260904134550 52 32 0.0 0.0 0.00 0.12 0.00 97 1008.0
20260904133057 52 32 0.0 0.0 0.00 0.12 0.00 97 1007.8
20260904131546 52 32 0.0 0.0 0.00 0.12 0.00 97 1007.6
20260904130045 52 36 0.0 0.0 0.00 0.12 0.00 97 1007.5
20260904124548 53 15 0.0 0.0 0.00 0.19 0.00 97 1007.4
20260904123104 53 15 0.0 0.0 0.00 0.19 0.00 96 1007.2
20260904121539 53 71 0.0 0.0 0.00 0.19 0.00 97 1007.1
20260904120040 53 24 0.0 0.0 0.00 0.19 0.00 97 1007.1
20260904114537 53 25 0.0 0.0 0.00 0.25 0.00 96 1007.0
20260904113047 54 27 0.0 0.0 0.00 0.25 0.00 96 1007.1
20260904111532 54 65 0.0 0.0 0.00 0.25 0.00 96 1007.1
20260904110038 54 30 0.0 0.0 0.00 0.25 0.00 96 1007.0
20260904104529 54 17 0.0 0.0 0.00 0.33 0.00 96 1007.0
20260904103028 55 26 0.0 0.0 0.00 0.33 0.00 96 1007.0
20260904101526 55 74 0.0 0.0 0.00 0.33 0.00 96 1007.0
20260904100025 56 46 0.0 0.0 0.00 0.33 0.00 96 1007.0
20260904094522 56 52 0.0 0.0 0.00 0.38 0.00 96 1006.9
20260904093022 56 355 0.0 0.0 0.00 0.38 0.00 96 1006.9
20260904091523 56 355 0.0 0.0 0.00 0.38 0.00 96 1006.9
20260904090022 56 313 0.0 0.0 0.00 0.38 0.00 96 1006.9
20260904084522 56 49 0.0 0.0 0.00 0.43 0.00 96 1007.0
20260904083018 56 40 0.0 0.0 0.00 0.43 0.00 96 1007.1
20260904081517 56 57 0.0 0.0 0.00 0.43 0.00 96 1007.1
20260904080018 56 10 0.0 0.0 0.00 0.43 0.00 96 1007.1
20260904074516 56 10 0.0 0.0 0.00 0.48 0.00 96 1007.0
20260904073014 56 10 0.0 0.0 0.01 0.48 0.00 96 1007.0
20260904071513 56 10 0.0 0.0 0.01 0.48 0.00 96 1007.0
20260904070030 56 10 0.0 0.0 0.01 0.48 0.00 96 1006.9
20260904064508 56 10 0.0 0.0 0.01 0.51 0.48 96 1006.9
20260904063013 56 10 0.0 0.0 0.00 0.50 0.47 96 1006.9
20260904061506 57 10 0.0 0.0 0.00 0.50 0.47 96 1006.8
20260904060005 57 10 0.0 0.0 0.00 0.50 0.47 96 1006.8
20260904054503 57 10 0.0 0.0 0.00 0.51 0.47 96 1006.7
20260904053003 58 10 0.0 0.0 0.00 0.51 0.47 96 1006.9
20260904051604 58 10 0.0 0.0 0.00 0.51 0.47 96 1006.9
20260904050005 58 10 0.0 0.0 0.00 0.51 0.47 96 1007.0
20260904044500 58 10 0.0 0.0 0.01 0.51 0.47 95 1007.1
20260904043100 58 10 0.0 0.0 0.01 0.51 0.47 95 1007.2